When you browse on this site, cookies collect data to enhance your experience and personalize the content and advertising you see.
Visit our Privacy Policy to learn more. By continuing to use the site, you agree to this use of cookies and data.
  • en France
  • Liste des pays
  • À 7 jours
  • Température de l'eau
  • Carte météo
  • Widgets météo
  • user-avatar
    Se connecter

    Météo par heure à Safaga

    Ce jour, 21 Novembre, Jeudi

    Heure Température Précipitation Vent Pression Humidité
    00:00 +13°C° 0 mm 3 m/s 704 mmHg 46%
    01:00 +13°C° 0 mm 3 m/s 704 mmHg 47%
    02:00 +13°C° 0 mm 2 m/s 704 mmHg 47%
    03:00 +12°C° 0 mm 3 m/s 704 mmHg 51%
    04:00 +12°C° 0 mm 3 m/s 704 mmHg 54%
    05:00 +13°C° 0 mm 3 m/s 704 mmHg 57%
    06:00 +14°C° 0 mm 3 m/s 705 mmHg 53%
    07:00 +17°C° 0 mm 4 m/s 705 mmHg 49%
    08:00 +19°C° 0 mm 4 m/s 705 mmHg 45%
    09:00 +20°C° 0 mm 4 m/s 706 mmHg 40%
    10:00 +22°C° 0 mm 5 m/s 706 mmHg 35%
    11:00 +23°C° 0 mm 5 m/s 706 mmHg 30%
    12:00 +23°C° 0 mm 5 m/s 705 mmHg 31%
    13:00 +23°C° 0 mm 5 m/s 705 mmHg 32%
    14:00 +25°C° 0 mm 5 m/s 704 mmHg 33%
    15:00 +22°C° 0 mm 4 m/s 704 mmHg 39%
    16:00 +20°C° 0 mm 4 m/s 704 mmHg 46%
    17:00 +18°C° 0 mm 3 m/s 704 mmHg 52%
    18:00 +17°C° 0 mm 3 m/s 704 mmHg 56%
    19:00 +16°C° 0 mm 3 m/s 704 mmHg 60%
    20:00 +15°C° 0 mm 2 m/s 704 mmHg 64%
    21:00 +15°C° 0 mm 2 m/s 704 mmHg 68%
    22:00 +14°C° 0 mm 2 m/s 704 mmHg 71%
    23:00 +14°C° 0 mm 1 m/s 704 mmHg 75%

    Demain, 22 Novembre, Vendredi

    Heure Température Précipitation Vent Pression Humidité
    00:00 +13°C° 0 mm 1 m/s 703 mmHg 74%
    01:00 +13°C° 0 mm 1 m/s 703 mmHg 74%
    02:00 +11°C° 0 mm 0 m/s 703 mmHg 73%
    03:00 +11°C° 0 mm 0 m/s 703 mmHg 73%
    04:00 +11°C° 0 mm 0 m/s 703 mmHg 73%
    05:00 +10°C° 0 mm 0 m/s 703 mmHg 73%
    06:00 +13°C° 0 mm 0 m/s 703 mmHg 61%
    07:00 +15°C° 0 mm 0 m/s 704 mmHg 50%
    08:00 +18°C° 0 mm 0 m/s 705 mmHg 38%
    09:00 +22°C° 0 mm 1 m/s 705 mmHg 33%
    10:00 +23°C° 0 mm 1 m/s 705 mmHg 27%
    11:00 +25°C° 0 mm 2 m/s 706 mmHg 22%
    12:00 +26°C° 0 mm 2 m/s 705 mmHg 20%
    13:00 +26°C° 0 mm 3 m/s 704 mmHg 18%
    14:00 +27°C° 0 mm 4 m/s 704 mmHg 16%
    15:00 +24°C° 0 mm 3 m/s 704 mmHg 23%
    16:00 +21°C° 0 mm 2 m/s 703 mmHg 29%
    17:00 +19°C° 0 mm 1 m/s 703 mmHg 36%
    18:00 +18°C° 0 mm 1 m/s 703 mmHg 45%
    19:00 +16°C° 0 mm 1 m/s 703 mmHg 55%
    20:00 +13°C° 0 mm 0 m/s 703 mmHg 64%
    21:00 +14°C° 0 mm 1 m/s 703 mmHg 64%
    22:00 +14°C° 0 mm 1 m/s 704 mmHg 65%
    23:00 +14°C° 0 mm 1 m/s 704 mmHg 65%

    Après-demain, 23 Novembre, Samedi

    Heure Température Précipitation Vent Pression Humidité
    00:00 +13°C° 0 mm 1 m/s 703 mmHg 66%
    01:00 +13°C° 0 mm 1 m/s 703 mmHg 68%
    02:00 +12°C° 0 mm 1 m/s 703 mmHg 69%
    03:00 +12°C° 0 mm 1 m/s 703 mmHg 67%
    04:00 +10°C° 0 mm 0 m/s 703 mmHg 66%
    05:00 +10°C° 0 mm 0 m/s 703 mmHg 64%
    06:00 +12°C° 0 mm 0 m/s 703 mmHg 54%
    07:00 +15°C° 0 mm 0 m/s 704 mmHg 44%
    08:00 +17°C° 0 mm 0 m/s 705 mmHg 35%
    09:00 +21°C° 0 mm 1 m/s 705 mmHg 29%
    10:00 +23°C° 0 mm 1 m/s 705 mmHg 24%
    11:00 +24°C° 0 mm 2 m/s 706 mmHg 19%
    12:00 +25°C° 0 mm 2 m/s 705 mmHg 17%
    13:00 +26°C° 0 mm 2 m/s 705 mmHg 16%
    14:00 +27°C° 0 mm 3 m/s 704 mmHg 14%
    15:00 +24°C° 0 mm 2 m/s 704 mmHg 19%
    16:00 +21°C° 0 mm 2 m/s 703 mmHg 24%
    17:00 +18°C° 0 mm 2 m/s 703 mmHg 28%
    18:00 +18°C° 0 mm 1 m/s 703 mmHg 34%
    19:00 +15°C° 0 mm 1 m/s 703 mmHg 40%
    20:00 +13°C° 0 mm 0 m/s 703 mmHg 46%
    21:00 +12°C° 0 mm 0 m/s 703 mmHg 49%
    22:00 +12°C° 0 mm 0 m/s 703 mmHg 52%
    23:00 +11°C° 0 mm 0 m/s 703 mmHg 55%

    24 Novembre, Dimanche

    Heure Température Précipitation Vent Pression Humidité
    00:00 +11°C° 0 mm 0 m/s 703 mmHg 55%
    01:00 +10°C° 0 mm 0 m/s 703 mmHg 56%
    02:00 +10°C° 0 mm 0 m/s 703 mmHg 56%
    03:00 +10°C° 0 mm 0 m/s 703 mmHg 56%
    04:00 +9°C° 0 mm 0 m/s 703 mmHg 56%
    05:00 +9°C° 0 mm 0 m/s 702 mmHg 56%
    06:00 +13°C° 0 mm 1 m/s 703 mmHg 47%
    07:00 +15°C° 0 mm 1 m/s 704 mmHg 37%
    08:00 +19°C° 0 mm 1 m/s 705 mmHg 28%
    09:00 +21°C° 0 mm 1 m/s 705 mmHg 23%
    10:00 +23°C° 0 mm 1 m/s 705 mmHg 18%
    11:00 +25°C° 0 mm 2 m/s 705 mmHg 13%
    12:00 +25°C° 0 mm 2 m/s 705 mmHg 12%
    13:00 +26°C° 0 mm 3 m/s 705 mmHg 11%
    14:00 +27°C° 0 mm 4 m/s 704 mmHg 11%
    15:00 +24°C° 0 mm 3 m/s 704 mmHg 16%
    16:00 +21°C° 0 mm 3 m/s 703 mmHg 22%
    17:00 +19°C° 0 mm 2 m/s 703 mmHg 27%
    18:00 +17°C° 0 mm 2 m/s 703 mmHg 34%
    19:00 +16°C° 0 mm 1 m/s 703 mmHg 41%
    20:00 +13°C° 0 mm 0 m/s 703 mmHg 48%
    21:00 +13°C° 0 mm 0 m/s 703 mmHg 51%
    22:00 +12°C° 0 mm 0 m/s 703 mmHg 53%
    23:00 +12°C° 0 mm 0 m/s 703 mmHg 56%

    25 Novembre, Lundi

    Heure Température Précipitation Vent Pression Humidité
    00:00 +11°C° 0 mm 0 m/s 703 mmHg 55%
    01:00 +11°C° 0 mm 0 m/s 702 mmHg 54%
    02:00 +11°C° 0 mm 0 m/s 702 mmHg 54%
    03:00 +11°C° 0 mm 0 m/s 702 mmHg 51%
    04:00 +11°C° 0 mm 0 m/s 702 mmHg 49%
    05:00 +11°C° 0 mm 0 m/s 702 mmHg 47%
    06:00 +14°C° 0 mm 0 m/s 703 mmHg 39%
    07:00 +16°C° 0 mm 0 m/s 704 mmHg 30%
    08:00 +19°C° 0 mm 0 m/s 705 mmHg 22%
    09:00 +23°C° 0 mm 1 m/s 705 mmHg 19%
    10:00 +25°C° 0 mm 1 m/s 706 mmHg 17%
    11:00 +27°C° 0 mm 1 m/s 706 mmHg 14%
    12:00 +28°C° 0 mm 2 m/s 705 mmHg 14%
    13:00 +29°C° 0 mm 2 m/s 705 mmHg 14%
    14:00 +29°C° 0 mm 3 m/s 705 mmHg 15%
    15:00 +27°C° 0 mm 2 m/s 704 mmHg 19%
    16:00 +24°C° 0 mm 2 m/s 704 mmHg 24%
    17:00 +20°C° 0 mm 2 m/s 703 mmHg 29%
    18:00 +20°C° 0 mm 1 m/s 704 mmHg 30%
    19:00 +19°C° 0 mm 1 m/s 704 mmHg 32%
    20:00 +16°C° 0 mm 0 m/s 704 mmHg 34%
    21:00 +16°C° 0 mm 0 m/s 704 mmHg 33%
    22:00 +16°C° 0 mm 0 m/s 704 mmHg 33%
    23:00 +16°C° 0 mm 0 m/s 703 mmHg 32%

    26 Novembre, Mardi

    Heure Température Précipitation Vent Pression Humidité
    00:00 +16°C° 0 mm 1 m/s 703 mmHg 32%
    01:00 +16°C° 0 mm 1 m/s 703 mmHg 32%
    02:00 +16°C° 0 mm 1 m/s 703 mmHg 32%
    03:00 +16°C° 0 mm 1 m/s 703 mmHg 33%
    04:00 +16°C° 0 mm 1 m/s 703 mmHg 34%
    05:00 +16°C° 0 mm 1 m/s 703 mmHg 35%
    06:00 +19°C° 0 mm 1 m/s 703 mmHg 30%
    07:00 +22°C° 0 mm 1 m/s 704 mmHg 25%
    08:00 +25°C° 0 mm 1 m/s 705 mmHg 20%
    09:00 +27°C° 0 mm 2 m/s 705 mmHg 18%
    10:00 +29°C° 0 mm 3 m/s 705 mmHg 16%
    11:00 +30°C° 0 mm 4 m/s 705 mmHg 14%
    12:00 +32°C° 0 mm 5 m/s 705 mmHg 13%
    13:00 +32°C° 0 mm 5 m/s 704 mmHg 13%
    14:00 +33°C° 0 mm 5 m/s 704 mmHg 12%
    15:00 +29°C° 0 mm 4 m/s 704 mmHg 15%
    16:00 +27°C° 0 mm 3 m/s 703 mmHg 17%
    17:00 +24°C° 0 mm 2 m/s 703 mmHg 20%
    18:00 +23°C° 0 mm 2 m/s 703 mmHg 21%
    19:00 +23°C° 0 mm 2 m/s 703 mmHg 22%
    20:00 +21°C° 0 mm 2 m/s 703 mmHg 24%
    21:00 +20°C° 0 mm 2 m/s 703 mmHg 25%
    22:00 +20°C° 0 mm 2 m/s 703 mmHg 25%
    23:00 +19°C° 0 mm 2 m/s 703 mmHg 26%
    Voir plus